AO-07 1 07530U 74089B 24081.54025794 -.00000024 00000-0 13901-3 0 9998 2 07530 101.9763 75.3759 0011873 251.3017 225.2688 12.53673339258054 UO-11 1 14781U 84021B 24081.51397129 .00003123 00000-0 36119-3 0 9990 2 14781 97.6960 53.4948 0008516 17.7708 342.3804 14.86213246135463 AO-16 1 20439U 90005D 24081.74916022 .00000431 00000-0 17350-3 0 9995 2 20439 98.9013 84.4250 0011816 106.5000 69.4479 14.33306109785056 LO-19 1 20442U 90005G 24081.48705160 .00000447 00000-0 17841-3 0 9991 2 20442 98.8784 69.4732 0012858 83.5469 276.7178 14.33463903785215 AO-27 1 22825U 93061C 24081.61487120 .00000251 00000-0 11401-3 0 9990 2 22825 98.8004 133.4343 0007945 342.1762 17.9141 14.30443302590091 IO-26 1 22826U 93061D 24081.40681775 .00000262 00000-0 11715-3 0 9990 2 22826 98.7951 133.0860 0008222 326.5083 33.5578 14.30818941590344 FO-29 1 24278U 96046B 24081.57629214 .00000084 00000-0 11914-3 0 9990 2 24278 98.5724 27.7440 0351041 55.2856 308.0825 13.53176256362588 NOAA-15 1 25338U 98030A 24081.84390454 .00000363 00000-0 16830-3 0 9996 2 25338 98.5788 110.7598 0009756 214.4321 145.6228 14.26516300344987 GO-32 1 25397U 98043D 24081.47923500 .00000248 00000-0 12820-3 0 9995 2 25397 98.9120 46.9406 0002278 68.9190 291.2231 14.24002501334939 ISS 1 25544U 98067A 24081.87742818 .00020178 00000-0 37064-3 0 9991 2 25544 51.6420 28.1850 0004385 353.2313 61.3532 15.49212544445004 NO-44 1 26931U 01043C 24081.71426974 .00000484 00000-0 21465-3 0 9991 2 26931 67.0514 197.5187 0005560 279.9913 80.0561 14.31152613173592 SO-50 1 27607U 02058C 24081.55487889 .00002113 00000-0 30496-3 0 9998 2 27607 64.5531 130.8051 0034892 152.4224 207.8740 14.78501118143576 CO-55 1 27844U 03031E 24081.49204366 .00000767 00000-0 35906-3 0 9997 2 27844 98.6803 89.7416 0010551 44.7082 315.4945 14.23124595 75316 CO-57 1 27848U 03031J 24081.25163738 .00000611 00000-0 29272-3 0 9999 2 27848 98.6835 89.7971 0010670 59.7139 300.5093 14.22585488 75031 RS-22 1 27939U 03042A 24081.88622222 .00003030 00000-0 51912-3 0 9993 2 27939 98.2776 236.7901 0011669 341.0099 184.8509 14.69495781 95450 NOAA-18 1 28654U 05018A 24081.83922710 .00000395 00000-0 23505-3 0 9991 2 28654 98.8785 159.5217 0013305 313.2057 46.8003 14.13148252970924 CO-58 1 28895U 05043F 24081.62014703 .00003764 00000-0 67800-3 0 9996 2 28895 98.1859 217.4322 0014890 273.5764 86.3737 14.67087454981616 CO-65 1 32785U 08021C 24081.86993065 .00009371 00000-0 85209-3 0 9994 2 32785 97.7462 48.0624 0009248 255.1855 104.8342 14.95404393862493 AAUSAT2 1 32788U 08021F 24081.40890071 .00025892 00000-0 14741-2 0 9998 2 32788 97.5902 61.7283 0008866 110.2650 249.9534 15.12778238865034 CO-66 1 32791U 08021J 24081.17482577 .00012500 00000-0 96730-3 0 9995 2 32791 97.6866 53.0272 0004329 200.2001 159.9053 15.01599573863305 RS-30 1 32953U 08025A 24081.83059984 .00000033 00000-0 16807-3 0 9999 2 32953 82.5034 143.8259 0018041 296.2630 63.6595 12.43137211718274 PRISM 1 33493U 09002B 24081.59498318 .00025125 00000-0 13518-2 0 9990 2 33493 98.2182 121.9420 0013687 182.4750 177.6414 15.14767333825763 NOAA-19 1 33591U 09005A 24081.84932131 .00000342 00000-0 20778-3 0 9997 2 33591 99.0582 136.6891 0014084 174.6543 185.4781 14.12950171779296 SRMSAT 1 37841U 11058D 24081.38015574 .00000634 00000-0 20221-3 0 9999 2 37841 19.9726 327.8431 0011857 209.0710 308.0200 14.11058803642149 HRBE 1 37855U 11061F 24081.28974266 .00111587 00000-0 15886-2 0 9999 2 37855 101.6851 211.0121 0073406 254.6994 104.6121 15.52782510679282 RS-40 1 38735U 12041C 24081.57731981 .00000024 00000-0 10118-3 0 9990 2 38735 82.4757 224.4842 0017714 52.6340 307.6350 12.42605314528295 ZACUBE-1 1 39417U 13066B 24081.87242862 .00009332 00000-0 99725-3 0 9996 2 39417 97.7248 39.9313 0053832 89.2185 271.5199 14.87908950558592 Delfi-N3xt 1 39428U 13066N 24081.76285115 .00013563 00000-0 17863-2 0 9997 2 39428 97.8394 2.5108 0104466 12.7619 347.6198 14.76453517553364 GOMX-1 1 39430U 13066Q 24081.89857688 .00003938 00000-0 66493-3 0 9993 2 39430 97.7464 321.5468 0141744 169.6180 190.8005 14.63491715550272 LO-74 1 39440U 13066AA 24081.58596310 .00005974 00000-0 72388-3 0 9994 2 39440 97.8055 27.2652 0070696 198.9397 160.9185 14.82194791555353 AO-73 1 39444U 13066AE 24081.85488447 .00012612 00000-0 12666-2 0 9998 2 39444 97.7107 42.8378 0051712 71.9454 288.7389 14.90398857557685 SPROUT 1 39770U 14029E 24081.87912863 .00131849 00000-0 51379-2 0 9994 2 39770 98.0058 226.9134 0001266 167.3925 192.7343 15.25388965534253 DTUSAT-2 1 40030U 14033W 24081.35714214 .00009092 00000-0 79877-3 0 9991 2 40030 98.0000 31.6348 0012402 87.5169 272.7471 14.96747358529556 EO-80 1 40032U 14033Y 24081.86340062 .00012146 00000-0 10635-2 0 9995 2 40032 97.9980 32.1649 0011970 88.0692 272.1900 14.96799120530129 HODOYOSHI-1 1 40299U 14070B 24081.84824318 .00032503 00000-0 73247-3 0 9998 2 40299 97.1517 143.2795 0007756 3.8117 356.3189 15.43167779521634 XW-2C 1 40906U 15049H 24081.83986843 .00036997 00000-0 10252-2 0 9998 2 40906 97.4865 96.7233 0007172 247.5389 112.5095 15.36841934471037 XW-2D 1 40907U 15049J 24081.81494280 .00049924 00000-0 11768-2 0 9993 2 40907 97.4819 98.4524 0005986 229.2959 130.7768 15.41738464471207 LILACSAT-2 1 40908U 15049K 24081.81468371 .00014327 00000-0 58768-3 0 9997 2 40908 97.5283 90.0087 0010913 301.6814 58.3358 15.24300924470179 XW-2E 1 40909U 15049L 24081.79338545 .01074369 59685-3 19638-2 0 9995 2 40909 97.4073 111.9069 0006187 177.0716 183.0600 16.01468730472447 XW-2F 1 40910U 15049M 24081.50778787 .00677213 19312-3 18335-2 0 9994 2 40910 97.4248 110.6750 0006489 174.5639 185.5708 15.94236844472230 XW-2B 1 40911U 15049N 24081.87086593 .00047737 00000-0 11446-2 0 9991 2 40911 97.4795 98.7200 0006048 232.1657 127.9043 15.41234137471085 IO-86 1 40931U 15052B 24006.28856983 .00001263 00000-0 84248-4 0 9993 2 40931 6.0004 76.3799 0013541 291.8204 68.0484 14.77555377447321 ChubuSat-2 1 41338U 16012B 24081.56068249 .00008161 00000-0 52527-3 0 9994 2 41338 31.0001 234.2553 0011973 77.2736 282.9239 15.06993574444368 ChubuSat-3 1 41339U 16012C 24081.80529041 .00008574 00000-0 55864-3 0 9999 2 41339 31.0068 230.6827 0011921 85.4563 274.7436 15.06562762444389 Horyu-4 1 41340U 16012D 24081.58494667 .00016780 00000-0 90147-3 0 9992 2 41340 31.0014 185.3801 0010925 160.5223 199.5835 15.13683158444851 e-st@r-II 1 41459U 16025D 24081.75541405 .00227430 00000-0 18789-2 0 9996 2 41459 98.1389 321.9394 0046621 186.2788 173.7893 15.68175262435871 Lapan A3 1 41603U 16040E 24081.83216973 .00005117 00000-0 21100-3 0 9990 2 41603 97.1489 99.5307 0013716 56.6235 303.6314 15.24402922429918 Pratham 1 41783U 16059A 24081.55512210 .00001480 00000-0 28541-3 0 9996 2 41783 97.8448 104.9906 0031326 299.8457 59.9634 14.64606687399716 CAS-2T 1 41847U 16066G 24081.47648972 .00002748 00000-0 40751-3 0 9996 2 41847 98.4677 153.4229 0356560 81.4760 282.6660 14.40887927386865 CAS-4B 1 42759U 17034B 24081.88840375 .00026282 00000-0 10486-2 0 9991 2 42759 43.0124 358.6339 0010939 137.2430 222.9274 15.24643030374068 CAS-4A 1 42761U 17034D 24081.83139759 .00029160 00000-0 11582-2 0 9992 2 42761 43.0144 357.3650 0009848 140.6770 219.4797 15.24757618374066 NIUSat 1 42766U 17036B 24081.84693540 .00303561 00000-0 17631-2 0 9994 2 42766 97.1123 116.5205 0006670 151.6267 208.5365 15.77650837375842 Aalto 1 1 42775U 17036L 24081.80245833 .00081314 00000-0 12692-2 0 9999 2 42775 97.1192 111.2634 0007707 152.4139 207.7526 15.53515008375489 URSA MAIOR 1 42776U 17036M 24081.89224015 .00125765 00000-0 14624-2 0 9994 2 42776 97.1170 114.2595 0007127 145.3344 214.8379 15.61281925375673 Max Valier Sat 1 42778U 17036P 24081.58532283 .00095666 00000-0 10902-2 0 9992 2 42778 97.1178 118.0407 0006973 149.2733 210.8935 15.61909787375802 D-SAT 1 42794U 17036AF 24081.48304281 .00010875 00000-0 79120-3 0 9991 2 42794 97.4897 66.5971 0110636 84.0309 277.3510 14.99102758367576 TechnoSat 1 42829U 17042E 24081.77140222 .00005309 00000-0 48103-3 0 9995 2 42829 97.3825 267.7969 0012892 13.4284 346.7279 14.95688953364101 AO-91 1 43017U 17073E 24081.41933805 .00011313 00000-0 72925-3 0 9998 2 43017 97.5933 320.0830 0215809 226.3983 131.9153 14.91230982342570 TianYi 2 1 43155U 18008A 24081.89763728 .00088960 00000-0 18925-2 0 9998 2 43155 97.2523 135.1814 0007977 43.3366 316.8509 15.44615812341362 Zhou Enlai 1 43156U 18008B 24081.84997784 .00121376 00000-0 22239-2 0 9997 2 43156 97.2561 136.1534 0005681 44.2032 315.9672 15.48854918341339 TianYi 6 1 43158U 18008D 24081.87664928 .00060272 00000-0 16173-2 0 9990 2 43158 97.2668 130.8297 0008090 54.0083 306.1911 15.37713021341018 S-Net D 1 43186U 18014G 24081.69568072 .00007129 00000-0 52938-3 0 9993 2 43186 97.5971 345.1202 0009635 309.2904 50.7466 15.03298662335358 S-Net B 1 43187U 18014H 24081.29818695 .00006461 00000-0 48036-3 0 9991 2 43187 97.5979 344.6734 0010280 305.7086 54.3182 15.03288620335292 S-Net A 1 43188U 18014J 24081.69688711 .00006850 00000-0 50877-3 0 9998 2 43188 97.5983 345.1701 0010207 304.5920 55.4342 15.03300323335353 S-Net C 1 43189U 18014K 24081.69980041 .00006766 00000-0 50243-3 0 9993 2 43189 97.6004 345.1033 0011712 296.0274 63.9745 15.03300047333909 Changshagaoxin 1 43669U 18083H 24081.88144123 .00236969 00000-0 20420-2 0 9999 2 43669 97.3403 117.7410 0004948 167.2984 192.8403 15.68537203300021 Ten-Koh 1 43677U 18084G 24081.43051345 .00005652 00000-0 51986-3 0 9998 2 43677 98.0483 232.5068 0013363 310.8439 49.1622 14.95124229293604 PO-101 1 43678U 18084H 24081.86536553 .00003176 00000-0 29776-3 0 9996 2 43678 98.0589 237.3886 0008513 326.8987 33.1699 14.94753211293873 QO-100 1 43700U 18090A 24081.58938226 .00000134 00000-0 00000+0 0 9997 2 43700 0.0102 229.9376 0001133 146.8325 40.8136 1.00274682 19725 MinXSS-2 1 43758U 18099A 24081.70385155 .00013751 00000-0 92815-3 0 9998 2 43758 97.5650 145.5187 0016335 255.0984 104.8435 15.06618899289606 AO-95 1 43770U 18099N 24081.40331429 .00008834 00000-0 64331-3 0 9992 2 43770 97.5563 141.1978 0013037 303.8427 56.1558 15.03936601289362 RANGE-B 1 43772U 18099Q 24081.10674711 .00015567 00000-0 10370-2 0 9999 2 43772 97.5351 144.1372 0005331 199.7886 160.3135 15.07175341289447 RANGE-A 1 43773U 18099R 24081.68774859 .00007001 00000-0 54896-3 0 9993 2 43773 97.5183 137.7456 0015508 278.9788 80.9681 15.01172788289304 MOVE-II 1 43780U 18099Y 24081.10924668 .00021007 00000-0 12338-2 0 9999 2 43780 97.5321 145.1477 0006037 278.2881 81.7665 15.11717114289609 SNUSat 2 1 43782U 18099AA 24081.10759077 .00009925 00000-0 73462-3 0 9992 2 43782 97.5261 140.5214 0014768 240.0266 119.9494 15.03265673289339 SnugLite 1 43784U 18099AC 24081.12197212 .00010597 00000-0 76553-3 0 9994 2 43784 97.5057 139.9430 0004032 244.2470 115.8341 15.04243021289398 ITASat 1 1 43786U 18099AE 24081.14441834 .00007193 00000-0 54101-3 0 9993 2 43786 97.5224 140.9463 0015715 294.1738 65.7844 15.02747260289343 EAGLET 1 1 43790U 18099AJ 24081.38502441 .00006892 00000-0 53378-3 0 9996 2 43790 97.5361 141.6135 0014294 275.5241 84.4354 15.01666486289092 ESEO 1 43792U 18099AL 24081.11291260 .00004007 00000-0 33461-3 0 9990 2 43792 97.5305 138.7346 0009725 267.6448 92.3662 14.99054280289007 CSIM 1 43793U 18099AM 24081.15908967 .00019290 00000-0 11322-2 0 9995 2 43793 97.5391 146.8466 0012795 252.6611 107.3220 15.11705875289468 JO-97 1 43803U 18099AX 24081.68258816 .00011320 00000-0 79451-3 0 9990 2 43803 97.5320 142.3887 0009140 235.2768 124.7599 15.05283472289526 Suomi 100 1 43804U 18099AY 24081.42850848 .00010068 00000-0 71752-3 0 9990 2 43804 97.5396 141.9480 0015275 237.4353 122.5399 15.04682841289474 CHOMPTT 1 43855U 18104G 24081.15798979 .00181894 00000-0 12678-2 0 9996 2 43855 85.0184 333.3880 0004738 31.1074 329.0476 15.73802092293696 ISAT 1 43879U 18111D 24081.56106641 .00015701 00000-0 10247-2 0 9997 2 43879 97.6262 347.8237 0012075 303.1503 56.8566 15.07885291286209 UWE-4 1 43880U 18111E 24081.23429305 .00012947 00000-0 86092-3 0 9999 2 43880 97.6176 347.7224 0016017 313.3051 46.6840 15.07195437286175 Sparrow 1 43881U 18111F 24081.29502543 .00015441 00000-0 99625-3 0 9990 2 43881 97.6340 349.3025 0010212 351.0649 9.0395 15.08329164286220 AISTechSat 3 1 44103U 19018AB 24081.43510695 .00307679 00000-0 13942-2 0 9992 2 44103 97.1956 147.8032 0003538 269.8557 90.2307 15.83127582277747 AISat 1 1 44104U 19018AC 24081.81425577 .00120411 00000-0 94434-3 0 9992 2 44104 97.3614 187.0967 0022284 304.8351 55.0816 15.70853883279051 Prox-1 1 44339U 19036A 24081.62539771 .00015335 00000-0 27841-2 0 9998 2 44339 24.0007 67.7542 0009230 107.2246 252.9259 14.64575610252478 SONATE 1 44400U 19038Q 24081.42168372 .00024162 00000-0 83293-3 0 9994 2 44400 97.7111 71.8995 0019504 61.6556 298.6647 15.29820302260649 BeeSat 9 1 44412U 19038AC 24081.52738568 .00143275 00000-0 17994-2 0 9999 2 44412 97.6865 81.4060 0010269 49.5446 310.6703 15.59161548261023 JAISAT-1 1 44419U 19038F 24081.53486148 .00138515 00000-0 17855-2 0 9998 2 44419 97.6844 82.4733 0010060 49.6620 310.5512 15.58487478261400 Taurus 1 1 44530U 19059C 24081.87343171 .00011284 00000-0 27028-2 0 9996 2 44530 98.5646 199.8994 0010948 319.5824 40.4557 14.53640694239077 Duchifat 3 1 44854U 19089C 24081.72003788 .00021792 00000-0 12082-2 0 9998 2 44854 36.9575 218.7158 0008105 87.6577 272.5097 15.13027928234939 OPS-SAT 1 44878U 19092F 24081.54664789 .00150672 00000-0 16313-2 0 9993 2 44878 97.4516 282.9477 0004816 205.5321 154.5700 15.63063618236766 TO-108 1 44881U 19093C 24081.83320757 .00001980 00000-0 24756-3 0 9992 2 44881 97.8329 160.3081 0013257 246.2751 113.7072 14.83383340230091 FloripaSat 1 1 44885U 19093G 24081.82240498 .00009194 00000-0 98477-3 0 9994 2 44885 97.8432 165.1498 0012185 240.5499 119.4502 14.88848688230367 RS-44 1 44909U 19096E 24081.47016783 .00000020 00000-0 43091-4 0 9995 2 44909 82.5250 163.0575 0216363 256.1930 101.5011 12.79727641197758 BY70-2 1 45857U 20042B 24081.86371568 .00121535 00000-0 71098-2 0 9990 2 45857 97.9110 171.1593 0007586 170.6629 189.4742 15.11257801201281 UPMSat 2 1 46276U 20061E 24081.45839336 .00019269 00000-0 65525-3 0 9993 2 46276 97.3076 148.9125 0002442 93.2587 266.8933 15.30484300196747 AmicalSat 1 46287U 20061R 24081.44616468 .00032366 00000-0 10810-2 0 9992 2 46287 97.3602 149.0518 0002675 161.9565 198.1772 15.30961699196119 SALSAT 1 46495U 20068K 24081.60721998 .00010236 00000-0 60705-3 0 9994 2 46495 97.8073 38.8574 0012301 250.1905 109.7998 15.11501659191073 AO-109 1 47311U 21002C 24081.60964634 .00296940 00000-0 15175-2 0 9995 2 47311 60.6663 46.0230 0023008 82.3200 278.0525 15.79805701177522 ExoCube 2 1 47319U 21002L 24081.38839629 .00247047 00000-0 15771-2 0 9999 2 47319 60.6642 51.6843 0024292 81.9687 278.4180 15.74913072177368 UVSQ-SAT 1 47438U 21006AB 24081.43128883 .00044739 00000-0 11727-2 0 9994 2 47438 97.3403 141.3177 0008242 164.9167 195.2326 15.38511803175206 YUSAT 1 1 47439U 21006AC 24081.13915824 .00085540 00000-0 16138-2 0 9997 2 47439 97.3391 143.8924 0007301 163.2667 196.8826 15.48142032175344 SOMP 2b 1 47445U 21006AJ 24081.42685686 .00040806 00000-0 11344-2 0 9996 2 47445 97.3370 139.9665 0008068 171.3649 188.7736 15.36711495175147 IDEASSat 1 47458U 21006AX 24081.60096252 .00037138 00000-0 10925-2 0 9993 2 47458 97.3467 140.8410 0007958 171.6638 188.4739 15.34960256175122 CubeSX-Sirius-HSE 1 47951U 21022V 24081.89157048 .00028829 00000-0 12754-2 0 9990 2 47951 97.4708 340.7040 0017674 85.9194 274.4061 15.21493659165283 CubeSX-HSE 1 47952U 21022W 24081.85089951 .00029077 00000-0 12828-2 0 9992 2 47952 97.4710 340.7408 0017660 85.4252 274.9000 15.21587390165284 KSU-Cubesat 1 47954U 21022Y 24081.52282150 .00028849 00000-0 11985-2 0 9993 2 47954 97.4719 341.3894 0016733 83.5466 276.7675 15.23644301165014 GRBAlpha 1 47959U 21022AD 24081.62365634 .00024695 00000-0 10879-2 0 9994 2 47959 97.4711 340.6489 0017426 86.2689 274.0540 15.21675059164079 Orbicraft-Zorkiy 1 47960U 21022AE 24081.84925188 .00031508 00000-0 13247-2 0 9999 2 47960 97.4752 341.8715 0016926 83.1609 277.1552 15.23218638164843 STECCO 1 47962U 21022AG 24081.84027222 .00106558 00000-0 25841-2 0 9994 2 47962 97.4718 348.4332 0010830 63.5114 296.7242 15.40590123164604 MO-110 1 47964U 21022AJ 24081.24780353 .00090552 00000-0 20242-2 0 9997 2 47964 97.4733 349.0797 0011775 60.1022 300.1393 15.43098022164583 TUBIN 1 48900U 21059X 24081.85558529 .00024392 00000-0 92934-3 0 9990 2 48900 97.6314 224.2463 0007621 36.8568 323.3193 15.26684119151585 LEDSAT 1 49069U 21073D 24081.74043549 .00021349 00000-0 95260-3 0 9996 2 49069 97.4461 153.6583 0020101 228.5663 131.3846 15.21221580143144 CUTE 1 49263U 21088D 24081.44801572 .00019342 00000-0 10094-2 0 9994 2 49263 97.5076 148.2329 0015260 30.7223 329.4900 15.15873673136339 TeikyoSat 4 1 49396U 21102B 24081.56030867 .00003685 00000-0 27261-3 0 9990 2 49396 97.4707 129.5530 0013004 210.5173 149.5298 15.03712630129580 Z-Sat 1 49399U 21102E 24081.87735233 .00007456 00000-0 49505-3 0 9991 2 49399 97.4443 131.2293 0020610 193.4421 166.6260 15.07327764129833 KOSEN 1 1 49402U 21102H 24081.68541620 .00009559 00000-0 58988-3 0 9991 2 49402 97.4367 132.1947 0019647 179.1000 181.0269 15.09956643129938 HO-113 1 50466U 21131B 24081.89545750 .00001233 00000-0 41019-3 0 9994 2 50466 98.5290 167.3892 0004653 41.4986 318.6555 14.39430099117444 Tevel-3 1 50988U 22002E 24081.85140249 .00105161 00000-0 21084-2 0 9995 2 50988 97.3908 154.8193 0003559 306.0603 54.0317 15.46318016121479 Tevel-8 1 50989U 22002F 24081.82058679 .00108100 00000-0 21756-2 0 9990 2 50989 97.3927 154.8745 0003580 303.8778 56.2130 15.46194736121463 Tevel-5 1 50998U 22002Q 24081.81435679 .00120019 00000-0 22076-2 0 9997 2 50998 97.3905 155.7129 0004499 295.1981 64.8803 15.48753736121537 Tevel-6 1 50999U 22002R 24081.88057943 .00118983 00000-0 21928-2 0 9991 2 50999 97.3903 155.7618 0004468 294.2442 65.8341 15.48701978121547 Tevel-1 1 51013U 22002AF 24081.80904043 .00107319 00000-0 21603-2 0 9994 2 51013 97.3902 154.6596 0003526 304.8672 55.2245 15.46192478121468 IRIS-A 1 51044U 22002BN 24081.45458590 .00024751 00000-0 92203-3 0 9993 2 51044 97.3949 148.5029 0005907 353.2280 6.8878 15.27433625121010 Tevel-7 1 51062U 22002CG 24081.81386058 .00108939 00000-0 21856-2 0 9998 2 51062 97.3923 154.8401 0003638 303.7647 56.3256 15.46283293121466 Tevel-4 1 51063U 22002CH 24081.83933138 .00106305 00000-0 21496-2 0 9993 2 51063 97.3920 154.7976 0003618 304.1349 55.9557 15.46063583121469 Tevel-2 1 51069U 22002CP 24081.85075128 .00108317 00000-0 21682-2 0 9999 2 51069 97.3906 154.7858 0003555 304.8099 55.2816 15.46352295121470 SO-115 1 51080U 22002DA 24081.45792153 .00152437 00000-0 19550-2 0 9995 2 51080 97.4183 161.8840 0004755 312.8415 47.2441 15.58620656121719 SO-114 1 51081U 22002DB 24081.48905556 .00162436 00000-0 19823-2 0 9995 2 51081 97.4182 162.0673 0004565 310.5519 49.5339 15.59905704121739 OreSat0 1 52017U 22026K 24081.83529743 .00068763 00000-0 16229-2 0 9995 2 52017 97.5043 92.9627 0016196 163.9587 196.2175 15.41495513112207 Planetum 1 1 52738U 22057G 24081.85250807 .00051357 00000-0 15836-2 0 9997 2 52738 97.5546 205.4594 0005497 103.9515 256.2339 15.33407506101153 Foresail-1 1 52766U 22057AL 24081.61341676 .00026069 00000-0 96003-3 0 9995 2 52766 97.5696 205.4118 0010680 81.2558 278.9890 15.27768433101062 SNUGLITE 2 1 52899U 22065F 24081.64266637 .00002773 00000-0 58243-3 0 9997 2 52899 98.1038 224.5792 0008699 71.0072 289.2071 14.60369376 91480 IO-117 1 53106U 22080B 24069.66819003 -.00000003 00000-0 00000-0 0 9995 2 53106 70.1332 227.0918 0008274 126.4127 233.7296 6.42557646 38879 SelfieSat 1 53951U 22057BC 24081.86521568 .00086861 00000-0 21087-2 0 9994 2 53951 97.5580 207.8587 0005023 92.1649 268.0172 15.40685274101287 FO-118 1 54684U 22167C 24081.86919388 .00041201 00000-0 16687-2 0 9990 2 54684 97.5922 225.0714 0011054 93.2124 267.0378 15.24494959 70974 SSS-2B 1 56184U 23054G 24081.87981818 .00045057 00000-0 13562-2 0 9993 2 56184 97.3808 339.5308 0009968 120.4142 239.8087 15.34173323 52723 CIRBE 1 56188U 23054L 24081.21937127 .00056013 00000-0 13760-2 0 9993 2 56188 97.3727 339.7105 0008921 111.5154 248.7044 15.40435798 52698 INSPIRE-Sat 7 1 56211U 23054AK 24081.68845005 .00062070 00000-0 14538-2 0 9998 2 56211 97.3777 341.1844 0012282 97.3974 262.8670 15.41813853 52823 RoseyCubesat 1 1 56212U 23054AL 24081.79450558 .00087002 00000-0 19055-2 0 9997 2 56212 97.3777 341.6776 0012331 95.1402 265.1253 15.43714441 52862 SO-120 1 56992U 23084BU 24081.60077972 .00033350 00000-0 14476-2 0 9999 2 56992 97.5209 200.4738 0013610 332.2427 27.8081 15.22170020 42836 MRC-100 1 56993U 23084BV 24081.26839228 .00035325 00000-0 14848-2 0 9999 2 56993 97.5205 200.3240 0013343 331.8199 28.2314 15.23253376 42802 UmKA 1 (RS40S) 1 57172U 23091G 24081.87905060 .00008934 00000-0 61101-3 0 9993 2 57172 97.6248 134.8450 0018497 62.4838 297.8266 15.06213975 40345 CubeBel-2 (EU11S) 1 57175U 23091K 24081.85544274 .00011345 00000-0 77025-3 0 9992 2 57175 97.6242 134.7121 0017072 74.3650 285.9459 15.06439653 40332 VERONIKA 1 58261U 23174F 24081.79000432 .00027071 00000-0 13593-2 0 9999 2 58261 97.4676 157.6165 0013459 184.1392 175.9733 15.17182102 20447 KAFASAT 1 58317U 23174BP 24081.83153696 .00034952 00000-0 16420-2 0 9995 2 58317 97.4623 157.9259 0012702 164.1508 196.0126 15.19453142 20475 ENSO 1 58470U 23185J 24081.86491230 .00023706 00000-0 11059-2 0 9997 2 58470 97.4367 149.6919 0013053 220.7454 139.2806 15.19775761 16866 EIRSAT-1 1 58472U 23185L 24081.86012610 .00026802 00000-0 12422-2 0 9995 2 58472 97.4360 149.6864 0012828 221.3874 138.6390 15.19978822 16866 SO-121 1 58567U 23174CY 24081.46300160 .00045064 00000-0 20462-2 0 9998 2 58567 97.4627 157.5194 0015020 176.5164 183.6179 15.20537122 20418 Clark sat-1 (AMBITIOUS) 1 58613U 98067WE 24081.26753977 .00398964 00000-0 21428-2 0 9992 2 58613 51.6313 22.7177 0006515 109.3630 250.8076 15.78548237 14721 SONATE-2 1 59112U 24043Q 24081.59545045 .00014369 00000-0 74669-3 0 9991 2 59112 97.4648 206.6166 0015093 237.0901 122.8880 15.16092159 2522 /EX